N12KBM KBHM-KBHM

Flight info

Callsign N12KBM
Flight time 0h 8m
Altitude VFR
Route PATTERN
Aircraft TBM9/L-VGD/C

Departure

Time 2026-04-22 23:49
Airport Birmingham-Shuttlesworth International Airport (KBHM)

Arrival

Time 2026-04-22 23:57
Airport Birmingham-Shuttlesworth International Airport (KBHM)
Time Latitude Longitude Altitude Speed Heading
2026-04-22 23:39 33.56154 -86.75613 619 ft 0 kts 191°
2026-04-22 23:39 33.56153 -86.75613 619 ft 0 kts 191°
2026-04-22 23:40 33.56151 -86.75616 620 ft 6 kts 290°
2026-04-22 23:40 33.56179 -86.75730 624 ft 0 kts 346°
2026-04-22 23:40 33.56204 -86.75696 628 ft 13 kts 59°
2026-04-22 23:40 33.56263 -86.75593 626 ft 16 kts 60°
2026-04-22 23:41 33.56325 -86.75486 627 ft 15 kts 53°
2026-04-22 23:41 33.56386 -86.75379 623 ft 16 kts 55°
2026-04-22 23:41 33.56454 -86.75263 623 ft 17 kts 55°
2026-04-22 23:41 33.56518 -86.75146 622 ft 16 kts 55°
2026-04-22 23:42 33.56548 -86.75101 624 ft 0 kts 53°
2026-04-22 23:42 33.56582 -86.75037 627 ft 15 kts 57°
2026-04-22 23:42 33.56596 -86.75017 628 ft 7 kts 32°
2026-04-22 23:42 33.56611 -86.75010 622 ft 0 kts
2026-04-22 23:48 33.56668 -86.75064 628 ft 21 kts 276°
2026-04-22 23:48 33.56522 -86.75353 668 ft 74 kts 236°
2026-04-22 23:49 33.56214 -86.75925 995 ft 86 kts 237°
2026-04-22 23:49 33.55715 -86.76276 1305 ft 89 kts 178°
2026-04-22 23:49 33.55258 -86.75809 1522 ft 100 kts 112°
2026-04-22 23:49 33.55156 -86.74970 1683 ft 104 kts 94°
2026-04-22 23:50 33.55160 -86.74130 1938 ft 100 kts 87°
2026-04-22 23:50 33.55383 -86.73317 2106 ft 104 kts 64°
2026-04-22 23:50 33.55739 -86.72528 2147 ft 114 kts 64°
2026-04-22 23:50 33.56132 -86.71664 1871 ft 111 kts 62°
2026-04-22 23:51 33.56521 -86.70879 1575 ft 110 kts 57°
2026-04-22 23:51 33.57007 -86.70256 1378 ft 94 kts 29°
2026-04-22 23:51 33.57619 -86.70319 1092 ft 91 kts 327°
2026-04-22 23:51 33.58075 -86.70807 1321 ft 94 kts 315°
2026-04-22 23:52 33.58407 -86.71512 1378 ft 101 kts 272°
2026-04-22 23:52 33.58318 -86.72247 1056 ft 85 kts 236°
2026-04-22 23:52 33.57991 -86.72796 913 ft 71 kts 235°
2026-04-22 23:52 33.57720 -86.73274 811 ft 67 kts 236°
2026-04-22 23:53 33.57461 -86.73718 747 ft 66 kts 235°
2026-04-22 23:53 33.57208 -86.74154 672 ft 56 kts 234°
2026-04-22 23:53 33.57015 -86.74490 658 ft 54 kts 236°
2026-04-22 23:53 33.56735 -86.74984 996 ft 74 kts 231°
2026-04-22 23:54 33.56308 -86.75395 1362 ft 81 kts 187°
2026-04-22 23:54 33.56223 -86.74738 1272 ft 102 kts 63°
2026-04-22 23:54 33.56618 -86.73991 1314 ft 108 kts 55°
2026-04-22 23:54 33.57053 -86.73257 1398 ft 106 kts 56°
2026-04-22 23:55 33.57477 -86.72507 1434 ft 110 kts 58°
2026-04-22 23:55 33.57901 -86.71742 1438 ft 109 kts 54°
2026-04-22 23:55 33.58547 -86.71683 1268 ft 99 kts 314°
2026-04-22 23:55 33.58246 -86.72370 1039 ft 110 kts 226°
2026-04-22 23:56 33.57847 -86.73002 864 ft 77 kts 237°
2026-04-22 23:56 33.57569 -86.73517 746 ft 75 kts 239°
2026-04-22 23:56 33.57324 -86.73954 713 ft 58 kts 236°
2026-04-22 23:56 33.57102 -86.74345 685 ft 59 kts 234°
2026-04-22 23:57 33.56867 -86.74742 645 ft 53 kts 236°
2026-04-22 23:57 33.56676 -86.75082 642 ft 48 kts 234°
2026-04-22 23:57 33.56495 -86.75390 622 ft 34 kts 241°
2026-04-22 23:57 33.56397 -86.75570 630 ft 20 kts 229°
2026-04-22 23:58 33.56347 -86.75578 623 ft 14 kts 153°
2026-04-22 23:58 33.56295 -86.75543 621 ft 19 kts 145°
2026-04-22 23:58 33.56265 -86.75518 624 ft 0 kts 145°